sat.trackr.live / text

‹ back to catalog

IXPE

NORAD 49954 · 2021-121A

PAYLOAD ACTIVE UNKNOWN

§ Identity

Operator
Country
US
Launch date
2021-12-09
Launch site
AFETR
Launch vehicle
Mass (kg)
RCS (m²)

Purposes: science

External: N2YO · Heavens-Above · Gunter

§ Orbital elements

Epoch: 2026-09-04T06:00:02.000160Z

Period
95.31 min
Inclination
0.2312°
Eccentricity
0.0007090
Mean motion
15.10892065 rev/d
Perigee alt
528.6 km
Apogee alt
538.4 km
Semi-major
6,911.6 km
B*
4.2809e-4
RAAN
78.9338°
Arg perigee
200.3048°
Mean anomaly
339.7706°
Rev number
558

§ Raw data

IXPE1 49954U 21121A   26247.25002315  .00008276  00000+0  42809-3 0  99952 49954   0.2312  78.9338 0007090 200.3048 339.7706 15.10892065  5582

JSON: /api/v1/satellites/49954 · /tle

For live sub-satellite position, see the globe view (requires WebGL).

§ Visibility from observer

Set your observer location to see the next 7 days of passes ≥ 10°. The values pass through the URL so the page stays shareable.

No JS? Fill the form by hand. The geolocation button needs JavaScript.